AAL715 KPNS-KDFW

Flight info

Callsign AAL715
Flight time 1h 47m
Altitude 30000
Route PENSI V198 LOXLY IRUBE MCB HEZ ELD FEWWW BRDJE5
Aircraft A319/M-SDE3FGHIRWY/LB1

Departure

Time 2026-04-30 18:20
Airport Pensacola International Airport (KPNS)

Arrival

Time 2026-04-30 20:07
Airport Dallas Fort Worth International Airport (KDFW)
Time Latitude Longitude Altitude Speed Heading
2026-04-30 17:39 30.47578 -87.19230 129 ft 0 kts 234°
2026-04-30 18:10 30.47594 -87.19205 123 ft 4 kts 227°
2026-04-30 18:11 30.47629 -87.19183 126 ft 0 kts 96°
2026-04-30 18:15 30.47623 -87.19145 128 ft 4 kts 107°
2026-04-30 18:15 30.47503 -87.19084 125 ft 9 kts 167°
2026-04-30 18:16 30.47390 -87.18998 124 ft 12 kts 131°
2026-04-30 18:16 30.47207 -87.18935 124 ft 15 kts 167°
2026-04-30 18:17 30.47103 -87.18908 125 ft 16 kts 167°
2026-04-30 18:17 30.46989 -87.18878 127 ft 17 kts 167°
2026-04-30 18:17 30.46735 -87.18811 126 ft 20 kts 167°
2026-04-30 18:18 30.46594 -87.18773 125 ft 21 kts 167°
2026-04-30 18:18 30.46470 -87.18740 125 ft 12 kts 167°
2026-04-30 18:18 30.46405 -87.18693 125 ft 11 kts 106°
2026-04-30 18:18 30.46405 -87.18671 130 ft 0 kts 81°
2026-04-30 18:19 30.46407 -87.18663 128 ft 3 kts 80°
2026-04-30 18:19 30.46414 -87.18618 126 ft 8 kts 78°
2026-04-30 18:19 30.46473 -87.18583 124 ft 18 kts 347°
2026-04-30 18:19 30.46789 -87.18667 125 ft 82 kts 347°
2026-04-30 18:20 30.47576 -87.18876 133 ft 148 kts 347°
2026-04-30 18:20 30.48613 -87.19167 618 ft 157 kts 345°
2026-04-30 18:20 30.49737 -87.19485 936 ft 175 kts 345°
2026-04-30 18:20 30.51005 -87.19822 1072 ft 199 kts 345°
2026-04-30 18:21 30.52430 -87.20201 1226 ft 222 kts 345°
2026-04-30 18:21 30.54016 -87.20625 1415 ft 244 kts 345°
2026-04-30 18:21 30.55704 -87.21075 1908 ft 253 kts 345°
2026-04-30 18:21 30.57435 -87.21535 2514 ft 256 kts 346°
2026-04-30 18:22 30.59184 -87.21997 3157 ft 260 kts 345°
2026-04-30 18:22 30.62756 -87.22943 4375 ft 266 kts 345°
2026-04-30 18:22 30.64572 -87.23428 4971 ft 269 kts 345°
2026-04-30 18:23 30.66404 -87.23919 5571 ft 272 kts 345°
2026-04-30 18:23 30.68254 -87.24412 6177 ft 274 kts 345°
2026-04-30 18:23 30.70120 -87.24907 6746 ft 276 kts 345°
2026-04-30 18:23 30.71996 -87.25428 7381 ft 277 kts 340°
2026-04-30 18:24 30.74840 -87.28166 8501 ft 269 kts 294°
2026-04-30 18:24 30.75319 -87.30246 9058 ft 267 kts 274°
2026-04-30 18:24 30.75413 -87.32398 9626 ft 266 kts 273°
2026-04-30 18:25 30.75505 -87.34552 10083 ft 269 kts 274°
2026-04-30 18:25 30.75714 -87.39222 10452 ft 309 kts 274°
2026-04-30 18:25 30.75832 -87.41757 11046 ft 315 kts 274°
2026-04-30 18:26 30.76063 -87.46868 12574 ft 320 kts 274°
2026-04-30 18:26 30.76177 -87.49493 13420 ft 322 kts 274°
2026-04-30 18:26 30.76285 -87.52068 14217 ft 324 kts 274°
2026-04-30 18:27 30.76501 -87.57342 15533 ft 329 kts 273°
2026-04-30 18:27 30.76612 -87.60011 16160 ft 331 kts 273°
2026-04-30 18:28 30.76842 -87.65405 17350 ft 337 kts 273°
2026-04-30 18:28 30.76901 -87.68135 17935 ft 340 kts 268°
2026-04-30 18:28 30.76566 -87.73662 19016 ft 345 kts 266°
2026-04-30 18:29 30.76392 -87.76450 19538 ft 347 kts 267°
2026-04-30 18:29 30.77260 -87.84830 21086 ft 354 kts 283°
2026-04-30 18:30 30.78483 -87.90426 22054 ft 359 kts 283°
2026-04-30 18:30 30.79714 -87.96093 22962 ft 364 kts 283°
2026-04-30 18:31 30.80332 -87.98959 23391 ft 366 kts 283°
2026-04-30 18:31 30.81577 -88.04743 24123 ft 371 kts 283°
2026-04-30 18:32 30.82837 -88.10594 24819 ft 375 kts 283°
2026-04-30 18:32 30.83475 -88.13558 25102 ft 379 kts 283°
2026-04-30 18:32 30.84762 -88.19552 25796 ft 384 kts 283°
2026-04-30 18:33 30.85409 -88.22572 26160 ft 385 kts 283°
2026-04-30 18:33 30.86710 -88.28655 26884 ft 389 kts 283°
2026-04-30 18:33 30.87363 -88.31716 27244 ft 391 kts 283°
2026-04-30 18:34 30.88018 -88.34793 27593 ft 393 kts 283°
2026-04-30 18:34 30.89338 -88.40994 28275 ft 396 kts 283°
2026-04-30 18:34 30.90002 -88.44118 28610 ft 398 kts 283°
2026-04-30 18:35 30.90667 -88.47254 28937 ft 400 kts 283°
2026-04-30 18:35 30.91337 -88.50408 29255 ft 402 kts 282°
2026-04-30 18:35 30.92008 -88.53573 29569 ft 404 kts 282°
2026-04-30 18:36 30.93343 -88.59907 29968 ft 401 kts 282°
2026-04-30 18:36 30.94000 -88.63025 29975 ft 391 kts 282°
2026-04-30 18:37 30.95919 -88.72130 29986 ft 379 kts 283°
2026-04-30 18:37 30.97154 -88.78032 29982 ft 373 kts 283°
2026-04-30 18:38 30.98372 -88.83900 29981 ft 372 kts 283°
2026-04-30 18:38 30.99590 -88.89736 29958 ft 373 kts 282°
2026-04-30 18:39 31.00828 -88.95631 29943 ft 375 kts 283°
2026-04-30 18:39 31.02182 -89.01522 29944 ft 377 kts 284°
2026-04-30 18:40 31.03587 -89.07421 29959 ft 378 kts 284°
2026-04-30 18:40 31.04981 -89.13330 29975 ft 378 kts 284°
2026-04-30 18:41 31.06351 -89.19262 29969 ft 378 kts 283°
2026-04-30 18:41 31.07715 -89.25202 29984 ft 379 kts 283°
2026-04-30 18:42 31.09072 -89.31095 29970 ft 379 kts 283°
2026-04-30 18:42 31.11123 -89.40018 29986 ft 380 kts 283°
2026-04-30 18:45 31.18580 -89.72795 29983 ft 380 kts 283°
2026-04-30 18:46 31.19919 -89.78719 29987 ft 380 kts 283°
2026-04-30 18:46 31.21265 -89.84690 29989 ft 380 kts 283°
2026-04-30 18:47 31.22607 -89.90653 29988 ft 380 kts 283°
2026-04-30 18:47 31.23946 -89.96624 29988 ft 380 kts 283°
2026-04-30 18:48 31.25282 -90.02593 30026 ft 378 kts 283°
2026-04-30 18:48 31.26604 -90.08522 30023 ft 376 kts 283°
2026-04-30 18:49 31.27914 -90.14387 30018 ft 375 kts 283°
2026-04-30 18:49 31.29223 -90.20278 30014 ft 374 kts 283°
2026-04-30 18:50 31.30557 -90.26152 29996 ft 374 kts 287°
2026-04-30 18:50 31.32307 -90.31884 30003 ft 374 kts 287°
2026-04-30 18:51 31.34064 -90.37612 30003 ft 374 kts 287°
2026-04-30 18:51 31.35809 -90.43339 30008 ft 373 kts 287°
2026-04-30 18:52 31.37542 -90.49048 30014 ft 372 kts 287°
2026-04-30 18:52 31.39268 -90.54744 30012 ft 371 kts 287°
2026-04-30 18:53 31.40995 -90.60432 30014 ft 371 kts 287°
2026-04-30 18:53 31.42710 -90.66088 30006 ft 370 kts 287°
2026-04-30 18:54 31.44428 -90.71770 30013 ft 370 kts 287°
2026-04-30 18:54 31.46144 -90.77453 30017 ft 370 kts 287°
2026-04-30 18:55 31.47572 -90.82203 30027 ft 368 kts 287°
2026-04-30 18:55 31.50100 -90.90624 30029 ft 366 kts 287°
2026-04-30 18:56 31.52626 -90.99055 30030 ft 366 kts 287°
2026-04-30 18:57 31.55147 -91.07514 30008 ft 368 kts 286°
2026-04-30 18:57 31.56843 -91.13202 30006 ft 369 kts 287°
2026-04-30 18:58 31.59379 -91.21719 30031 ft 368 kts 286°
2026-04-30 18:59 31.62490 -91.29888 30029 ft 376 kts 303°
2026-04-30 19:00 31.68666 -91.35862 30031 ft 387 kts 316°
2026-04-30 19:00 31.70841 -91.37739 30028 ft 387 kts 316°
2026-04-30 19:01 31.79495 -91.45223 30058 ft 387 kts 316°
2026-04-30 19:02 31.86038 -91.50896 30006 ft 391 kts 316°
2026-04-30 19:03 31.94821 -91.58527 30012 ft 393 kts 316°
2026-04-30 19:04 32.03622 -91.66175 30019 ft 393 kts 316°
2026-04-30 19:05 32.12417 -91.73856 30037 ft 394 kts 315°
2026-04-30 19:06 32.21198 -91.81538 30030 ft 394 kts 315°
2026-04-30 19:06 32.27806 -91.87324 30029 ft 394 kts 315°
2026-04-30 19:07 32.34400 -91.93124 30080 ft 393 kts 315°
2026-04-30 19:08 32.43124 -92.00781 30077 ft 387 kts 314°
2026-04-30 19:09 32.49558 -92.06472 30071 ft 385 kts 314°
2026-04-30 19:09 32.53857 -92.10276 30067 ft 385 kts 314°
2026-04-30 19:10 32.62437 -92.17857 30084 ft 384 kts 314°
2026-04-30 19:11 32.68821 -92.23527 30071 ft 381 kts 314°
2026-04-30 19:12 32.73058 -92.27290 30065 ft 380 kts 314°
2026-04-30 19:12 32.77286 -92.31047 30063 ft 379 kts 314°
2026-04-30 19:13 32.85691 -92.38549 30060 ft 377 kts 313°
2026-04-30 19:14 32.89878 -92.42284 30050 ft 375 kts 313°
2026-04-30 19:14 32.94030 -92.45993 30041 ft 375 kts 313°
2026-04-30 19:15 32.98072 -92.49850 30041 ft 364 kts 303°
2026-04-30 19:15 33.00092 -92.55066 30036 ft 345 kts 275°
2026-04-30 19:15 33.00291 -92.57935 30040 ft 351 kts 275°
2026-04-30 19:16 33.00257 -92.60821 30033 ft 349 kts 261°
2026-04-30 19:16 32.99591 -92.63610 30037 ft 350 kts 256°
2026-04-30 19:17 32.97410 -92.71903 30035 ft 349 kts 256°
2026-04-30 19:17 32.95262 -92.80197 30035 ft 349 kts 257°
2026-04-30 19:18 32.93131 -92.88455 30037 ft 349 kts 257°
2026-04-30 19:19 32.91696 -92.93979 30038 ft 349 kts 256°
2026-04-30 19:19 32.89538 -93.02249 30038 ft 349 kts 256°
2026-04-30 19:20 32.88099 -93.07764 30045 ft 349 kts 256°
2026-04-30 19:21 32.85931 -93.16029 30053 ft 349 kts 256°
2026-04-30 19:22 32.83046 -93.27000 30026 ft 350 kts 256°
2026-04-30 19:23 32.78662 -93.43594 30044 ft 351 kts 256°
2026-04-30 19:24 32.76402 -93.51907 30052 ft 361 kts 250°
2026-04-30 19:24 32.72745 -93.56373 30055 ft 403 kts 221°
2026-04-30 19:25 32.64792 -93.60324 30043 ft 420 kts 210°
2026-04-30 19:26 32.59626 -93.63237 30045 ft 394 kts 230°
2026-04-30 19:26 32.57053 -93.68503 30072 ft 368 kts 263°
2026-04-30 19:26 32.57092 -93.71516 30073 ft 368 kts 280°
2026-04-30 19:27 32.59067 -93.77181 30043 ft 374 kts 290°
2026-04-30 19:28 32.63047 -93.85247 30035 ft 379 kts 295°
2026-04-30 19:29 32.68576 -93.95908 30034 ft 380 kts 296°
2026-04-30 19:30 32.74120 -94.06551 30030 ft 380 kts 296°
2026-04-30 19:31 32.79698 -94.17223 30036 ft 380 kts 296°
2026-04-30 19:31 32.82292 -94.25548 30032 ft 348 kts 267°
2026-04-30 19:32 32.81833 -94.28360 30033 ft 349 kts 254°
2026-04-30 19:32 32.80775 -94.30986 30023 ft 355 kts 247°
2026-04-30 19:32 32.78441 -94.36181 30034 ft 357 kts 247°
2026-04-30 19:33 32.76095 -94.41383 30034 ft 357 kts 247°
2026-04-30 19:33 32.73752 -94.46585 30032 ft 357 kts 248°
2026-04-30 19:34 32.71422 -94.51754 30033 ft 357 kts 247°
2026-04-30 19:35 32.67902 -94.59549 30033 ft 357 kts 247°
2026-04-30 19:35 32.65556 -94.64741 30031 ft 357 kts 247°
2026-04-30 19:36 32.63207 -94.69929 30032 ft 357 kts 247°
2026-04-30 19:36 32.59681 -94.77700 30032 ft 357 kts 247°
2026-04-30 19:37 32.57342 -94.82847 30031 ft 357 kts 247°
2026-04-30 19:37 32.54994 -94.88023 30030 ft 356 kts 247°
2026-04-30 19:38 32.52640 -94.93194 30029 ft 356 kts 247°
2026-04-30 19:38 32.50272 -94.98367 29987 ft 358 kts 247°
2026-04-30 19:39 32.47892 -95.03566 29995 ft 359 kts 247°
2026-04-30 19:39 32.45507 -95.08783 30001 ft 360 kts 247°
2026-04-30 19:40 32.43121 -95.13988 30015 ft 360 kts 247°
2026-04-30 19:40 32.40740 -95.19159 30023 ft 360 kts 247°
2026-04-30 19:41 32.38351 -95.24359 30032 ft 360 kts 247°
2026-04-30 19:41 32.35954 -95.29561 30035 ft 360 kts 247°
2026-04-30 19:42 32.33545 -95.34798 29796 ft 372 kts 247°
2026-04-30 19:42 32.32303 -95.37519 29525 ft 378 kts 247°
2026-04-30 19:42 32.31048 -95.40254 29256 ft 379 kts 247°
2026-04-30 19:43 32.29784 -95.42995 28987 ft 378 kts 246°
2026-04-30 19:43 32.28525 -95.45706 28532 ft 375 kts 246°
2026-04-30 19:43 32.27267 -95.48397 28017 ft 373 kts 246°
2026-04-30 19:44 32.24781 -95.53734 27032 ft 368 kts 246°
2026-04-30 19:44 32.23571 -95.56342 26545 ft 366 kts 246°
2026-04-30 19:44 32.22352 -95.58974 26019 ft 363 kts 246°
2026-04-30 19:44 32.21143 -95.61579 25565 ft 361 kts 246°
2026-04-30 19:45 32.19937 -95.64177 25077 ft 360 kts 246°
2026-04-30 19:45 32.18737 -95.66763 24604 ft 359 kts 245°
2026-04-30 19:45 32.17539 -95.69345 24129 ft 358 kts 245°
2026-04-30 19:45 32.16355 -95.71927 23665 ft 356 kts 248°
2026-04-30 19:46 32.15553 -95.74667 23159 ft 351 kts 260°
2026-04-30 19:46 32.15341 -95.76547 22862 ft 348 kts 267°
2026-04-30 19:46 32.15665 -95.80332 22269 ft 349 kts 282°
2026-04-30 19:46 32.16093 -95.82154 21985 ft 348 kts 283°
2026-04-30 19:47 32.16737 -95.84898 21546 ft 345 kts 282°
2026-04-30 19:47 32.17157 -95.86701 21248 ft 344 kts 282°
2026-04-30 19:47 32.18204 -95.91205 20532 ft 340 kts 282°
2026-04-30 19:47 32.18616 -95.92989 20246 ft 339 kts 282°
2026-04-30 19:48 32.19235 -95.95674 19815 ft 336 kts 282°
2026-04-30 19:48 32.19837 -95.98286 19609 ft 323 kts 282°
2026-04-30 19:48 32.20420 -96.00804 19199 ft 315 kts 282°
2026-04-30 19:48 32.20991 -96.03272 18772 ft 307 kts 282°
2026-04-30 19:49 32.21546 -96.05672 18292 ft 300 kts 282°
2026-04-30 19:49 32.22629 -96.10402 17419 ft 299 kts 281°
2026-04-30 19:49 32.23170 -96.12778 17046 ft 300 kts 281°
2026-04-30 19:50 32.23716 -96.15160 16664 ft 300 kts 281°
2026-04-30 19:50 32.24263 -96.17543 16286 ft 300 kts 281°
2026-04-30 19:50 32.24812 -96.19924 15892 ft 300 kts 281°
2026-04-30 19:50 32.25355 -96.22267 15599 ft 291 kts 281°
2026-04-30 19:51 32.25886 -96.24566 15167 ft 289 kts 281°
2026-04-30 19:51 32.26409 -96.26860 14803 ft 289 kts 281°
2026-04-30 19:51 32.26930 -96.29154 14711 ft 290 kts 281°
2026-04-30 19:51 32.27524 -96.31443 14590 ft 294 kts 287°
2026-04-30 19:52 32.28522 -96.33543 14449 ft 299 kts 300°
2026-04-30 19:52 32.29900 -96.35380 14129 ft 297 kts 306°
2026-04-30 19:52 32.31312 -96.37155 13637 ft 295 kts 305°
2026-04-30 19:52 32.32819 -96.38822 13268 ft 296 kts 312°
2026-04-30 19:53 32.34377 -96.40362 12848 ft 289 kts 312°
2026-04-30 19:53 32.35901 -96.41880 12554 ft 285 kts 312°
2026-04-30 19:53 32.37409 -96.43396 12215 ft 284 kts 312°
2026-04-30 19:53 32.38727 -96.45084 11894 ft 275 kts 299°
2026-04-30 19:54 32.39679 -96.47019 11552 ft 271 kts 294°
2026-04-30 19:54 32.40592 -96.48983 11214 ft 272 kts 295°
2026-04-30 19:54 32.41510 -96.50933 10876 ft 271 kts 296°
2026-04-30 19:54 32.42432 -96.52879 10531 ft 271 kts 296°
2026-04-30 19:55 32.43353 -96.54826 10172 ft 271 kts 296°
2026-04-30 19:55 32.44272 -96.56775 9849 ft 270 kts 296°
2026-04-30 19:55 32.45176 -96.58693 9661 ft 263 kts 296°
2026-04-30 19:55 32.46056 -96.60569 9250 ft 260 kts 296°
2026-04-30 19:56 32.46918 -96.62409 8860 ft 257 kts 296°
2026-04-30 19:56 32.47783 -96.64253 8536 ft 256 kts 296°
2026-04-30 19:56 32.48647 -96.66094 8213 ft 255 kts 295°
2026-04-30 19:56 32.49243 -96.68059 7917 ft 251 kts 278°
2026-04-30 19:57 32.49395 -96.70089 7707 ft 245 kts 272°
2026-04-30 19:57 32.49504 -96.72094 7350 ft 246 kts 272°
2026-04-30 19:57 32.49623 -96.74142 7012 ft 250 kts 272°
2026-04-30 19:57 32.49743 -96.76179 6877 ft 246 kts 272°
2026-04-30 19:58 32.49865 -96.78199 6628 ft 246 kts 273°
2026-04-30 19:58 32.49997 -96.80217 6369 ft 245 kts 277°
2026-04-30 19:58 32.50582 -96.82101 6068 ft 245 kts 296°
2026-04-30 19:58 32.51368 -96.83895 6014 ft 246 kts 295°
2026-04-30 19:59 32.52140 -96.85714 6015 ft 248 kts 294°
2026-04-30 19:59 32.52912 -96.87549 6016 ft 250 kts 294°
2026-04-30 19:59 32.54463 -96.91236 6020 ft 250 kts 293°
2026-04-30 20:00 32.55237 -96.93077 6016 ft 249 kts 294°
2026-04-30 20:00 32.56001 -96.94891 6012 ft 249 kts 294°
2026-04-30 20:00 32.56773 -96.96722 6015 ft 248 kts 294°
2026-04-30 20:00 32.57544 -96.98545 6014 ft 247 kts 294°
2026-04-30 20:01 32.59681 -97.01848 5945 ft 259 kts 325°
2026-04-30 20:01 32.61333 -97.02650 5702 ft 255 kts 347°
2026-04-30 20:01 32.63077 -97.02751 5406 ft 247 kts 359°
2026-04-30 20:02 32.66433 -97.02730 4790 ft 235 kts
2026-04-30 20:02 32.68046 -97.02722 4479 ft 228 kts
2026-04-30 20:03 32.71127 -97.02707 3885 ft 216 kts
2026-04-30 20:03 32.72609 -97.02699 3602 ft 208 kts
2026-04-30 20:03 32.74020 -97.02693 3360 ft 197 kts
2026-04-30 20:03 32.75352 -97.02686 3077 ft 185 kts
2026-04-30 20:04 32.76600 -97.02680 2837 ft 173 kts
2026-04-30 20:04 32.77748 -97.02674 2621 ft 162 kts
2026-04-30 20:04 32.78823 -97.02669 2409 ft 148 kts
2026-04-30 20:05 32.80795 -97.02658 2025 ft 137 kts
2026-04-30 20:05 32.81743 -97.02652 1831 ft 135 kts
2026-04-30 20:05 32.83594 -97.02632 1385 ft 131 kts
2026-04-30 20:06 32.84498 -97.02627 1234 ft 130 kts
2026-04-30 20:06 32.85401 -97.02641 1047 ft 130 kts
2026-04-30 20:06 32.86308 -97.02626 894 ft 131 kts
2026-04-30 20:06 32.87213 -97.02627 719 ft 129 kts
2026-04-30 20:07 32.88107 -97.02620 583 ft 128 kts
2026-04-30 20:07 32.88876 -97.02612 578 ft 91 kts
2026-04-30 20:07 32.89707 -97.02608 570 ft 38 kts 359°
2026-04-30 20:08 32.89949 -97.02694 574 ft 30 kts 330°
2026-04-30 20:08 32.90128 -97.02797 574 ft 30 kts 352°
2026-04-30 20:08 32.90341 -97.02799 578 ft 32 kts
2026-04-30 20:08 32.90573 -97.02797 575 ft 36 kts
2026-04-30 20:09 32.90835 -97.02797 574 ft 38 kts
2026-04-30 20:09 32.91087 -97.02796 572 ft 33 kts
2026-04-30 20:09 32.91584 -97.02794 574 ft 40 kts 360°
2026-04-30 20:10 32.91975 -97.02792 578 ft 24 kts
2026-04-30 20:10 32.92157 -97.02790 576 ft 27 kts
2026-04-30 20:10 32.92289 -97.02807 575 ft 16 kts 313°
2026-04-30 20:11 32.92301 -97.03109 575 ft 21 kts 270°
2026-04-30 20:11 32.92239 -97.03216 575 ft 18 kts 192°
2026-04-30 20:11 32.92107 -97.03244 580 ft 20 kts 190°
2026-04-30 20:12 32.91799 -97.03271 575 ft 24 kts 180°
2026-04-30 20:12 32.91624 -97.03271 575 ft 26 kts 180°
2026-04-30 20:12 32.91439 -97.03272 580 ft 27 kts 180°
2026-04-30 20:13 32.91257 -97.03273 582 ft 27 kts 180°
2026-04-30 20:13 32.91091 -97.03273 580 ft 21 kts 181°
2026-04-30 20:13 32.90958 -97.03308 583 ft 19 kts 186°
2026-04-30 20:13 32.90848 -97.03326 586 ft 13 kts 232°
2026-04-30 20:14 32.90841 -97.03438 587 ft 14 kts 270°
2026-04-30 20:14 32.90836 -97.03565 587 ft 16 kts 269°
2026-04-30 20:14 32.90838 -97.03689 587 ft 9 kts 269°
2026-04-30 20:14 32.90837 -97.03751 587 ft 8 kts 270°
2026-04-30 20:15 32.90803 -97.03798 587 ft 9 kts 186°
2026-04-30 20:15 32.90768 -97.03795 587 ft 3 kts 176°
2026-04-30 20:15 32.90752 -97.03794 587 ft 2 kts 176°
2026-04-30 20:15 32.90740 -97.03793 587 ft 1 kts 177°